Regional Weather Roundup
Issued by NWS

Home | Current Version | Previous Version | Text Only | Print | Product List | Glossary On
Versions: 1 2 3 4 5 6 7 8 9 10 11 12 13 14 15 16 17 18 19 20 21 22 23 24 25 26 27 28 29 30 31 32 33 34 35 36 37 38 39 40 41 42 43 44 45 46 47 48 49 50
000
ASUS42 KKEY 290910
RWRKEY

FLORIDA REGIONAL WEATHER ROUNDUP FOR THE FLORIDA KEYS
NATIONAL WEATHER SERVICE KEY WEST FLORIDA
400 AM EST SAT NOV 29 2014

...SOUTH FLORIDA AND THE KEYS...

CITY           SKY/WX    TMP DP  RH WIND       PRES   REMARKS
FORT MYERS     CLEAR     50  45  83 NE9       30.22S
SW REGIONAL AP CLEAR     49  44  83 N6        30.22S
NAPLES         CLEAR     51  46  83 NE9       30.20F
MIAMI          PTCLDY    56  50  80 NW6       30.17F
WEST KENDALL   CLEAR     55  51  86 N12       30.18S
HOMESTEAD      CLEAR     55  51  87 NW10      30.17S
MARATHON       CLEAR     59  56  89 N14G23    30.16S
BOCA CHICA NAS PTCLDY    60  56  86 NE14      30.16F
KEY WEST INTL  PTCLDY    63  57  81 NE12G22   30.17S

...INTERNATIONAL WEATHER...

CITY           SKY/WX    TMP DP  RH WIND       PRES   REMARKS
NASSAU BAHAMAS PTCLDY    72  63  73 NE14      30.12R
CANCUN MEXICO  MOCLDY    72  59  64 NE5       30.10F
COZUMEL MEXICO PTCLDY    64  59  82 E7        30.10S

ADJACENT COASTAL WATERS...

STATION/POSITION TIME  SKY/WX   TEMP    WIND        PRES    WAVE
                                AIR SEA DIR/SP/G            HT/PER
                 (UTC)          (F)     (DEG/KT/KT) (MB)    (FT/S)
PULASKI SHOAL LI 0800            66      50/ 19/ 23 1021.4F
SAND KEY         0839            64      40/ 23/ 26 1021.0S
SOMBRERO KEY     0900            62      30/ 18/ 20 1021.2R
LONG KEY         0754            59 66   20/ 21/ 23 1022.0F
MOLASSES REEF    0900            60 75  360/ 17/ 19 1020.6F
FOWEY ROCKS      NOT AVBL
Buoy 42080       NOT AVBL

$$



USA.gov is the U.S. government's official web portal to all federal, state and local government web resources and services.